Location: Newark
(45.5000°N, 11.4167°E)
Time: 04:35:40
(UTC+00:00)

Explorer 11/Cluster Stage 4 - Pass Details

Date: 26 August 2019
Orbit: 467 x 1259 km, 28.8° (Epoch: 14 October)

Event Time Altitude Azimuth Distance (km) Brightness Sun altitude
Rises 10:50:41 0° 245° (WSW) 4,118 10.4 54.5°
Reaches altitude 10° 10:54:12 10° 232° (SW) 3,205 10.1 54.6°
Maximum altitude 11:00:14 23° 185° (S) 2,390 10.2 54.8°
Drops below altitude 10° 11:06:12 10° 137° (SE) 3,168 10.3 54.9°
Sets 11:09:39 0° 124° (ESE) 4,059 10.5 54.9°
